﻿_id,日時,平均風速(m/s),平均風向,最大瞬間風速(m/s),最大風速時風向,気温(℃),湿度(%),10分間移動積算雨量(mm),1時間移動積算雨量(mm),日雨量(mm),累計雨量(mm),日射(日積算)(MJ/m2),日照(日積算)(min),現地気圧(hPa),海面気圧(hPa)
1,2023-03-20T00:00:00,0.8,西,1.3,西南西,4.1,85.8,0,0,0,0,21.99,641,1007.6,1022.1
2,2023-03-20T00:01:00,0.8,西,1.3,西南西,4.2,86,0,0,0,0,0,0,1007.6,1022.1
3,2023-03-20T00:02:00,0.8,西,1.3,西南西,4.1,86.3,0,0,0,0,0,0,1007.6,1022.1
4,2023-03-20T00:03:00,0.8,西,1.3,西南西,4.2,86.7,0,0,0,0,0,0,1007.6,1022.1
5,2023-03-20T00:04:00,0.8,西,1.3,西南西,4.2,86.7,0,0,0,0,0,0,1007.6,1022.1
6,2023-03-20T00:05:00,0.7,西,1.3,西南西,4.2,86.7,0,0,0,0,0,0,1007.6,1022.1
7,2023-03-20T00:06:00,0.7,西,1.1,西,4.1,86.6,0,0,0,0,0,0,1007.6,1022.1
8,2023-03-20T00:07:00,0.6,西,1.1,西,4.2,86.9,0,0,0,0,0,0,1007.5,1022
9,2023-03-20T00:08:00,0.6,西北西,1.1,西,4.3,86.9,0,0,0,0,0,0,1007.5,1022
10,2023-03-20T00:09:00,0.6,西北西,1.1,西,4.2,86.9,0,0,0,0,0,0,1007.5,1022
11,2023-03-20T00:10:00,0.6,西北西,1.1,西,4.1,86.8,0,0,0,0,0,0,1007.5,1022
12,2023-03-20T00:11:00,0.6,西北西,1.3,西北西,4.4,87.2,0,0,0,0,0,0,1007.5,1022
13,2023-03-20T00:12:00,0.7,西北西,1.4,西北西,4.3,87.1,0,0,0,0,0,0,1007.6,1022.1
14,2023-03-20T00:13:00,0.7,西北西,1.4,西北西,4.2,86.9,0,0,0,0,0,0,1007.5,1022
15,2023-03-20T00:14:00,0.8,西北西,1.4,西北西,4.2,86.7,0,0,0,0,0,0,1007.6,1022.1
16,2023-03-20T00:15:00,0.8,西北西,1.4,西北西,4.1,86.4,0,0,0,0,0,0,1007.6,1022.1
17,2023-03-20T00:16:00,0.9,西北西,1.4,西北西,4.2,86.2,0,0,0,0,0,0,1007.6,1022.1
18,2023-03-20T00:17:00,0.9,西北西,1.4,西北西,4.1,86.4,0,0,0,0,0,0,1007.6,1022.1
19,2023-03-20T00:18:00,0.9,西北西,1.4,西北西,4.1,85.9,0,0,0,0,0,0,1007.6,1022.1
20,2023-03-20T00:19:00,0.9,西北西,1.4,西北西,4,86.1,0,0,0,0,0,0,1007.6,1022.1
21,2023-03-20T00:20:00,0.9,西北西,1.4,西北西,3.9,85.7,0,0,0,0,0,0,1007.6,1022.1
22,2023-03-20T00:21:00,0.9,西北西,1.4,西北西,3.8,85.7,0,0,0,0,0,0,1007.6,1022.1
23,2023-03-20T00:22:00,0.8,西北西,1.4,西,3.8,86,0,0,0,0,0,0,1007.5,1022
24,2023-03-20T00:23:00,0.8,西北西,1.3,西北西,3.8,85.9,0,0,0,0,0,0,1007.6,1022.1
25,2023-03-20T00:24:00,0.7,西北西,1.1,西,3.8,86.1,0,0,0,0,0,0,1007.6,1022.1
26,2023-03-20T00:25:00,0.7,西北西,1.1,西,3.9,86.8,0,0,0,0,0,0,1007.6,1022.1
27,2023-03-20T00:26:00,0.6,西北西,1.1,西,3.9,87,0,0,0,0,0,0,1007.6,1022.1
28,2023-03-20T00:27:00,0.6,西北西,1.1,西,3.9,87,0,0,0,0,0,0,1007.6,1022.1
29,2023-03-20T00:28:00,0.5,北西,1.1,西,3.9,87.2,0,0,0,0,0,0,1007.6,1022.1
30,2023-03-20T00:29:00,0.5,北西,1.1,西,4.2,87.6,0,0,0,0,0,0,1007.6,1022.1
31,2023-03-20T00:30:00,0.5,北北西,0.9,北北東,4.2,88,0,0,0,0,0,0,1007.6,1022.1
32,2023-03-20T00:31:00,0.5,北北西,1.1,北,4,87.4,0,0,0,0,0,0,1007.6,1022.1
33,2023-03-20T00:32:00,0.5,北,1.5,北北東,4,87.2,0,0,0,0,0,0,1007.5,1022
34,2023-03-20T00:33:00,0.5,北,1.5,北北東,4.1,87.4,0,0,0,0,0,0,1007.5,1022
35,2023-03-20T00:34:00,0.6,北,1.5,北北東,4,87.2,0,0,0,0,0,0,1007.5,1022
36,2023-03-20T00:35:00,0.6,北,1.5,北北東,4,87.1,0,0,0,0,0,0,1007.5,1022
37,2023-03-20T00:36:00,0.6,北,1.5,北北東,4,87.2,0,0,0,0,0,0,1007.5,1022
38,2023-03-20T00:37:00,0.7,北,1.5,北北東,3.8,86.9,0,0,0,0,0,0,1007.5,1022
39,2023-03-20T00:38:00,0.7,北北西,1.5,北北東,3.8,86.6,0,0,0,0,0,0,1007.5,1022
40,2023-03-20T00:39:00,0.7,北北西,1.5,北北東,3.8,86.4,0,0,0,0,0,0,1007.5,1022
41,2023-03-20T00:40:00,0.8,北北西,1.5,北北東,3.6,86.5,0,0,0,0,0,0,1007.4,1021.9
42,2023-03-20T00:41:00,0.8,北西,1.5,北北東,3.7,86.7,0,0,0,0,0,0,1007.4,1021.9
43,2023-03-20T00:42:00,0.7,北西,1.4,北,3.8,87.2,0,0,0,0,0,0,1007.4,1021.9
44,2023-03-20T00:43:00,0.7,北西,1.4,北,3.8,87.8,0,0,0,0,0,0,1007.4,1021.9
45,2023-03-20T00:44:00,0.6,北西,1.3,北西,3.7,87.4,0,0,0,0,0,0,1007.4,1021.9
46,2023-03-20T00:45:00,0.6,北西,1.3,北西,3.7,87.3,0,0,0,0,0,0,1007.4,1021.9
47,2023-03-20T00:46:00,0.6,北西,1.3,北西,3.8,87.6,0,0,0,0,0,0,1007.5,1022
48,2023-03-20T00:47:00,0.6,北西,1.3,北,3.8,87.8,0,0,0,0,0,0,1007.5,1022
49,2023-03-20T00:48:00,0.5,北北西,1.3,北,3.8,87.8,0,0,0,0,0,0,1007.5,1022
50,2023-03-20T00:49:00,0.5,北北西,1.3,北,3.7,87.6,0,0,0,0,0,0,1007.5,1022
51,2023-03-20T00:50:00,0.4,北北西,1.3,北,3.9,87.7,0,0,0,0,0,0,1007.4,1021.9
52,2023-03-20T00:51:00,0.4,北北西,1.3,北,3.8,88.1,0,0,0,0,0,0,1007.4,1021.9
53,2023-03-20T00:52:00,0.4,北北西,1.3,北,3.7,87.6,0,0,0,0,0,0,1007.5,1022
54,2023-03-20T00:53:00,0.4,北北西,1.3,北,3.8,87.8,0,0,0,0,0,0,1007.4,1021.9
55,2023-03-20T00:54:00,0.4,北北西,1.3,北,3.7,87.6,0,0,0,0,0,0,1007.4,1021.9
56,2023-03-20T00:55:00,0.4,北北西,0.9,北北東,3.6,87.5,0,0,0,0,0,0,1007.4,1021.9
57,2023-03-20T00:56:00,0.4,北北西,0.8,西北西,3.5,87.5,0,0,0,0,0,0,1007.4,1021.9
58,2023-03-20T00:57:00,0.3,北西,0.8,西北西,3.6,87.6,0,0,0,0,0,0,1007.4,1021.9
59,2023-03-20T00:58:00,0.4,北西,1,西北西,3.7,87.9,0,0,0,0,0,0,1007.4,1021.9
60,2023-03-20T00:59:00,0.4,北西,1.4,北西,3.8,88.3,0,0,0,0,0,0,1007.5,1022
61,2023-03-20T01:00:00,0.5,北西,1.4,北西,3.8,88.3,0,0,0,0,0,0,1007.4,1021.9
62,2023-03-20T01:01:00,0.5,北西,1.4,北西,3.8,88.4,0,0,0,0,0,0,1007.4,1021.9
63,2023-03-20T01:02:00,0.5,北西,1.4,北西,3.7,88,0,0,0,0,0,0,1007.4,1021.9
64,2023-03-20T01:03:00,0.5,北西,1.4,北西,3.6,87.8,0,0,0,0,0,0,1007.4,1021.9
65,2023-03-20T01:04:00,0.5,北西,1.4,北西,3.6,87.7,0,0,0,0,0,0,1007.4,1021.9
66,2023-03-20T01:05:00,0.6,北西,1.4,北西,3.5,87.9,0,0,0,0,0,0,1007.4,1021.9
67,2023-03-20T01:06:00,0.6,北西,1.4,北西,3.6,87.9,0,0,0,0,0,0,1007.4,1021.9
68,2023-03-20T01:07:00,0.7,北西,1.4,北西,3.6,88.2,0,0,0,0,0,0,1007.4,1021.9
69,2023-03-20T01:08:00,0.7,北西,1.4,北西,3.7,88.3,0,0,0,0,0,0,1007.4,1021.9
70,2023-03-20T01:09:00,0.7,北西,1.3,北西,3.7,88.6,0,0,0,0,0,0,1007.4,1021.9
71,2023-03-20T01:10:00,0.6,北西,1.3,北西,3.5,88.1,0,0,0,0,0,0,1007.5,1022
72,2023-03-20T01:11:00,0.6,北西,1.3,北西,3.6,88.1,0,0,0,0,0,0,1007.4,1021.9
73,2023-03-20T01:12:00,0.6,北西,1.3,北西,3.5,88.2,0,0,0,0,0,0,1007.5,1022
74,2023-03-20T01:13:00,0.6,北西,1.3,北西,3.6,88.2,0,0,0,0,0,0,1007.4,1021.9
75,2023-03-20T01:14:00,0.6,北西,1.3,北西,3.5,88.3,0,0,0,0,0,0,1007.4,1021.9
76,2023-03-20T01:15:00,0.6,北西,1.2,北西,3.5,88.1,0,0,0,0,0,0,1007.4,1021.9
77,2023-03-20T01:16:00,0.5,北西,1,北西,3.4,88.1,0,0,0,0,0,0,1007.5,1022
78,2023-03-20T01:17:00,0.5,北北西,1,北西,3.4,88.2,0,0,0,0,0,0,1007.5,1022
79,2023-03-20T01:18:00,0.4,北北西,1,北西,3.3,88.2,0,0,0,0,0,0,1007.4,1021.9
80,2023-03-20T01:19:00,0.4,北北西,0.9,北北東,3.5,88.7,0,0,0,0,0,0,1007.4,1021.9
81,2023-03-20T01:20:00,0.4,北北西,1.2,北,3.5,88.9,0,0,0,0,0,0,1007.4,1021.9
82,2023-03-20T01:21:00,0.4,北北西,1.2,北,3.5,88.8,0,0,0,0,0,0,1007.5,1022
83,2023-03-20T01:22:00,0.4,北北西,1.2,北,3.5,89.1,0,0,0,0,0,0,1007.4,1021.9
84,2023-03-20T01:23:00,0.4,北,1.2,北,3.5,89.1,0,0,0,0,0,0,1007.5,1022
85,2023-03-20T01:24:00,0.4,北,1.2,北,3.6,89.1,0,0,0,0,0,0,1007.4,1021.9
86,2023-03-20T01:25:00,0.4,北,1.2,北,3.6,89.2,0,0,0,0,0,0,1007.4,1021.9
87,2023-03-20T01:26:00,0.4,北,1.2,北,3.5,89.1,0,0,0,0,0,0,1007.5,1022
88,2023-03-20T01:27:00,0.4,北北東,1.2,北,3.3,88.6,0,0,0,0,0,0,1007.5,1022
89,2023-03-20T01:28:00,0.4,北北東,1.2,北,3.1,87.8,0,0,0,0,0,0,1007.4,1021.9
90,2023-03-20T01:29:00,0.4,北北東,1.2,北,2.9,87.7,0,0,0,0,0,0,1007.4,1021.9
91,2023-03-20T01:30:00,0.4,北北東,1.1,北北東,2.9,87.8,0,0,0,0,0,0,1007.4,1021.9
92,2023-03-20T01:31:00,0.3,北北東,1.1,北北東,2.9,88.1,0,0,0,0,0,0,1007.4,1021.9
93,2023-03-20T01:32:00,0.4,北北東,1.1,北北東,3.1,89,0,0,0,0,0,0,1007.4,1021.9
94,2023-03-20T01:33:00,0.4,北北東,1.1,北北東,3.2,89.5,0,0,0,0,0,0,1007.4,1021.9
95,2023-03-20T01:34:00,0.4,北北東,1.1,北北東,3.1,89.6,0,0,0,0,0,0,1007.4,1021.9
96,2023-03-20T01:35:00,0.4,北東,1.1,北北東,3.1,89.6,0,0,0,0,0,0,1007.4,1021.9
97,2023-03-20T01:36:00,0.3,北東,1.2,北東,3.1,89.9,0,0,0,0,0,0,1007.4,1021.9
98,2023-03-20T01:37:00,0.4,北東,1.2,北東,3,89.9,0,0,0,0,0,0,1007.4,1021.9
99,2023-03-20T01:38:00,0.3,北東,1.2,北東,3,89.6,0,0,0,0,0,0,1007.4,1021.9
100,2023-03-20T01:39:00,0.3,北東,1.2,北東,3.1,90.1,0,0,0,0,0,0,1007.4,1021.9
101,2023-03-20T01:40:00,0.3,北東,1.2,北東,3.2,90.3,0,0,0,0,0,0,1007.4,1021.9
102,2023-03-20T01:41:00,0.3,北東,1.2,北東,3,90.2,0,0,0,0,0,0,1007.4,1021.9
103,2023-03-20T01:42:00,0.3,北東,1.2,北東,3.1,90.3,0,0,0,0,0,0,1007.3,1021.8
104,2023-03-20T01:43:00,0.2,静穏,1.2,北東,3.5,90.9,0,0,0,0,0,0,1007.3,1021.8
105,2023-03-20T01:44:00,0.2,静穏,1.2,北東,3.4,91.1,0,0,0,0,0,0,1007.4,1021.9
106,2023-03-20T01:45:00,0.2,静穏,1.2,北東,3.5,91,0,0,0,0,0,0,1007.4,1021.9
107,2023-03-20T01:46:00,0.1,静穏,0.7,東北東,3.3,90.7,0,0,0,0,0,0,1007.4,1021.9
108,2023-03-20T01:47:00,0.1,静穏,0.6,東,3.2,90.3,0,0,0,0,0,0,1007.3,1021.8
109,2023-03-20T01:48:00,0.1,静穏,0.5,北東,3.3,90.1,0,0,0,0,0,0,1007.3,1021.8
110,2023-03-20T01:49:00,0.1,静穏,0.4,東北東,3.2,89.8,0,0,0,0,0,0,1007.2,1021.7
111,2023-03-20T01:50:00,0.1,静穏,0.4,東北東,3.3,89.8,0,0,0,0,0,0,1007.3,1021.8
112,2023-03-20T01:51:00,0.1,静穏,0.5,北,3.3,90,0,0,0,0,0,0,1007.3,1021.8
113,2023-03-20T01:52:00,0.1,静穏,0.5,北,3.2,89.9,0,0,0,0,0,0,1007.2,1021.7
114,2023-03-20T01:53:00,0.1,静穏,0.5,北,3.2,89.7,0,0,0,0,0,0,1007.2,1021.7
115,2023-03-20T01:54:00,0.2,静穏,0.6,北北西,3.2,89.6,0,0,0,0,0,0,1007.2,1021.7
116,2023-03-20T01:55:00,0.2,静穏,0.6,北北西,3.2,89.7,0,0,0,0,0,0,1007.2,1021.7
117,2023-03-20T01:56:00,0.2,静穏,0.7,北西,3.1,89.5,0,0,0,0,0,0,1007.2,1021.7
118,2023-03-20T01:57:00,0.3,北北西,1.1,西北西,3,89.4,0,0,0,0,0,0,1007.2,1021.7
119,2023-03-20T01:58:00,0.4,北北西,1.1,西北西,3,89.4,0,0,0,0,0,0,1007.2,1021.7
120,2023-03-20T01:59:00,0.5,北西,1.1,西北西,3,89.4,0,0,0,0,0,0,1007.2,1021.7
121,2023-03-20T02:00:00,0.5,北西,1.1,西北西,3,89.5,0,0,0,0,0,0,1007.2,1021.7
122,2023-03-20T02:01:00,0.6,北西,1.1,西北西,2.9,89.5,0,0,0,0,0,0,1007.1,1021.6
123,2023-03-20T02:02:00,0.6,北西,1.1,西北西,3,89.5,0,0,0,0,0,0,1007.1,1021.6
124,2023-03-20T02:03:00,0.7,西北西,1.1,西北西,3.2,89.9,0,0,0,0,0,0,1007.1,1021.6
125,2023-03-20T02:04:00,0.7,西北西,1.1,西北西,3.1,90,0,0,0,0,0,0,1007.1,1021.6
126,2023-03-20T02:05:00,0.7,西北西,1.1,西北西,3.1,89.9,0,0,0,0,0,0,1007.1,1021.6
127,2023-03-20T02:06:00,0.7,西北西,1.1,西北西,3,89.7,0,0,0,0,0,0,1007.1,1021.6
128,2023-03-20T02:07:00,0.7,西北西,1.1,西北西,3,89.6,0,0,0,0,0,0,1007,1021.5
129,2023-03-20T02:08:00,0.7,西北西,1,西北西,3,89.5,0,0,0,0,0,0,1007.2,1021.7
130,2023-03-20T02:09:00,0.6,西北西,1,西北西,2.9,89.5,0,0,0,0,0,0,1007.1,1021.6
131,2023-03-20T02:10:00,0.6,西北西,1,西北西,2.9,89.6,0,0,0,0,0,0,1007.1,1021.6
132,2023-03-20T02:11:00,0.6,西北西,1,西北西,3.1,89.8,0,0,0,0,0,0,1007.1,1021.6
133,2023-03-20T02:12:00,0.6,西北西,1,西北西,2.9,89.7,0,0,0,0,0,0,1007,1021.5
134,2023-03-20T02:13:00,0.5,西北西,0.9,西,2.9,89.7,0,0,0,0,0,0,1007.1,1021.6
135,2023-03-20T02:14:00,0.5,西北西,0.9,西北西,3,89.9,0,0,0,0,0,0,1007,1021.5
136,2023-03-20T02:15:00,0.5,西北西,0.9,西北西,3,90.1,0,0,0,0,0,0,1007.1,1021.6
137,2023-03-20T02:16:00,0.5,北西,0.9,西北西,2.9,89.9,0,0,0,0,0,0,1007,1021.5
138,2023-03-20T02:17:00,0.6,北西,0.9,西北西,2.9,89.7,0,0,0,0,0,0,1007,1021.5
139,2023-03-20T02:18:00,0.6,西北西,0.9,西北西,3,89.9,0,0,0,0,0,0,1007,1021.5
140,2023-03-20T02:19:00,0.6,西北西,0.9,西北西,2.9,90.1,0,0,0,0,0,0,1007,1021.5
141,2023-03-20T02:20:00,0.6,西北西,0.9,西北西,2.9,89.9,0,0,0,0,0,0,1007,1021.5
142,2023-03-20T02:21:00,0.6,西北西,1.1,西北西,2.8,89.9,0,0,0,0,0,0,1007,1021.5
143,2023-03-20T02:22:00,0.6,西北西,1.1,西北西,3,90.1,0,0,0,0,0,0,1007.1,1021.6
144,2023-03-20T02:23:00,0.7,西北西,1.1,西北西,2.9,90.2,0,0,0,0,0,0,1007,1021.5
145,2023-03-20T02:24:00,0.7,西北西,1.4,西北西,2.9,90,0,0,0,0,0,0,1007,1021.5
146,2023-03-20T02:25:00,0.8,西北西,1.4,西北西,2.8,90.1,0,0,0,0,0,0,1007,1021.5
147,2023-03-20T02:26:00,0.8,西北西,1.4,西北西,2.9,90.1,0,0,0,0,0,0,1007,1021.5
148,2023-03-20T02:27:00,0.8,西北西,1.4,西北西,2.8,90.3,0,0,0,0,0,0,1007,1021.5
149,2023-03-20T02:28:00,0.8,西北西,1.4,西北西,2.8,89.9,0,0,0,0,0,0,1007,1021.5
150,2023-03-20T02:29:00,0.8,西北西,1.4,西北西,2.7,89.8,0,0,0,0,0,0,1007,1021.5
151,2023-03-20T02:30:00,0.8,西北西,1.4,西北西,2.6,89.7,0,0,0,0,0,0,1006.9,1021.4
152,2023-03-20T02:31:00,0.8,西北西,1.4,西北西,2.6,89.6,0,0,0,0,0,0,1006.9,1021.4
153,2023-03-20T02:32:00,0.7,西北西,1.4,西北西,2.5,89.8,0,0,0,0,0,0,1006.8,1021.3
154,2023-03-20T02:33:00,0.7,西北西,1.4,西北西,2.6,89.9,0,0,0,0,0,0,1006.9,1021.4
155,2023-03-20T02:34:00,0.7,西北西,1.3,西北西,2.5,89.7,0,0,0,0,0,0,1006.8,1021.3
156,2023-03-20T02:35:00,0.6,西北西,1.1,西北西,2.5,89.9,0,0,0,0,0,0,1006.7,1021.2
157,2023-03-20T02:36:00,0.6,西北西,1,西南西,2.5,89.8,0,0,0,0,0,0,1006.8,1021.3
158,2023-03-20T02:37:00,0.5,西北西,1,西南西,2.5,90.1,0,0,0,0,0,0,1006.7,1021.2
159,2023-03-20T02:38:00,0.5,西北西,1,西南西,2.6,90.2,0,0,0,0,0,0,1006.8,1021.3
160,2023-03-20T02:39:00,0.5,西北西,1.1,西北西,2.5,90.2,0,0,0,0,0,0,1006.8,1021.3
161,2023-03-20T02:40:00,0.5,西,1.1,西北西,2.5,90.4,0,0,0,0,0,0,1006.8,1021.3
162,2023-03-20T02:41:00,0.5,西北西,1.1,西北西,2.6,90.3,0,0,0,0,0,0,1006.7,1021.2
163,2023-03-20T02:42:00,0.5,西北西,1.1,西北西,2.6,90.6,0,0,0,0,0,0,1006.8,1021.3
164,2023-03-20T02:43:00,0.5,西北西,1.1,西北西,2.7,90.6,0,0,0,0,0,0,1006.8,1021.3
165,2023-03-20T02:44:00,0.5,西北西,1.1,西北西,2.6,90.5,0,0,0,0,0,0,1006.8,1021.3
166,2023-03-20T02:45:00,0.5,西北西,1.1,西北西,2.6,90.6,0,0,0,0,0,0,1006.8,1021.3
167,2023-03-20T02:46:00,0.5,西北西,1.1,西北西,2.6,90.4,0,0,0,0,0,0,1006.7,1021.2
168,2023-03-20T02:47:00,0.5,西北西,1.1,西北西,2.8,90.8,0,0,0,0,0,0,1006.8,1021.3
169,2023-03-20T02:48:00,0.5,西北西,1.1,西北西,2.7,91,0,0,0,0,0,0,1006.7,1021.2
170,2023-03-20T02:49:00,0.5,西北西,0.9,西北西,2.8,90.7,0,0,0,0,0,0,1006.8,1021.3
171,2023-03-20T02:50:00,0.5,西北西,0.8,北北西,2.7,90.8,0,0,0,0,0,0,1006.8,1021.3
172,2023-03-20T02:51:00,0.4,西北西,0.8,北北西,2.8,90.5,0,0,0,0,0,0,1006.8,1021.3
173,2023-03-20T02:52:00,0.4,西北西,0.8,北北西,2.5,90.3,0,0,0,0,0,0,1006.7,1021.2
174,2023-03-20T02:53:00,0.4,西北西,0.8,北北西,2.6,90.1,0,0,0,0,0,0,1006.7,1021.2
175,2023-03-20T02:54:00,0.4,北西,0.8,北北西,2.7,90.4,0,0,0,0,0,0,1006.7,1021.2
176,2023-03-20T02:55:00,0.4,北西,0.8,北北西,2.6,90.5,0,0,0,0,0,0,1006.8,1021.3
177,2023-03-20T02:56:00,0.4,北西,0.7,西北西,2.6,90.4,0,0,0,0,0,0,1006.7,1021.2
178,2023-03-20T02:57:00,0.3,北西,0.7,西北西,2.6,90.5,0,0,0,0,0,0,1006.7,1021.2
179,2023-03-20T02:58:00,0.3,北西,0.7,西北西,2.5,90.3,0,0,0,0,0,0,1006.7,1021.2
180,2023-03-20T02:59:00,0.3,北西,0.7,西北西,2.4,90.1,0,0,0,0,0,0,1006.6,1021.1
181,2023-03-20T03:00:00,0.3,北西,0.5,西北西,2.4,90.2,0,0,0,0,0,0,1006.7,1021.3
182,2023-03-20T03:01:00,0.2,静穏,0.4,西北西,2.5,90.4,0,0,0,0,0,0,1006.6,1021.1
183,2023-03-20T03:02:00,0.2,静穏,0.4,西北西,2.5,90.7,0,0,0,0,0,0,1006.6,1021.1
184,2023-03-20T03:03:00,0.2,静穏,0.4,西北西,2.6,90.8,0,0,0,0,0,0,1006.6,1021.1
185,2023-03-20T03:04:00,0.2,静穏,0.4,西北西,2.5,90.7,0,0,0,0,0,0,1006.6,1021.1
186,2023-03-20T03:05:00,0.2,静穏,0.4,西北西,2.4,90.5,0,0,0,0,0,0,1006.6,1021.1
187,2023-03-20T03:06:00,0.2,静穏,0.4,西北西,2.6,90.8,0,0,0,0,0,0,1006.6,1021.1
188,2023-03-20T03:07:00,0.2,静穏,0.4,西北西,2.5,90.8,0,0,0,0,0,0,1006.6,1021.1
189,2023-03-20T03:08:00,0.3,北西,0.5,西北西,2.5,90.8,0,0,0,0,0,0,1006.6,1021.1
190,2023-03-20T03:09:00,0.3,北西,0.5,西北西,2.4,90.8,0,0,0,0,0,0,1006.5,1021
191,2023-03-20T03:10:00,0.3,北西,1,西,2.5,90.9,0,0,0,0,0,0,1006.5,1021
192,2023-03-20T03:11:00,0.3,西北西,1.1,西,2.3,90.8,0,0,0,0,0,0,1006.6,1021.2
193,2023-03-20T03:12:00,0.4,西北西,1.1,西,2.3,90.6,0,0,0,0,0,0,1006.6,1021.2
194,2023-03-20T03:13:00,0.4,西北西,1.1,西,2.2,90.5,0,0,0,0,0,0,1006.6,1021.2
195,2023-03-20T03:14:00,0.5,西北西,1.2,西,2.2,90.4,0,0,0,0,0,0,1006.7,1021.3
196,2023-03-20T03:15:00,0.6,西北西,1.2,西,2.2,90.5,0,0,0,0,0,0,1006.6,1021.2
197,2023-03-20T03:16:00,0.6,西北西,1.2,西,2.3,90.6,0,0,0,0,0,0,1006.6,1021.2
198,2023-03-20T03:17:00,0.6,西,1.2,西,2.2,90.9,0,0,0,0,0,0,1006.6,1021.2
199,2023-03-20T03:18:00,0.7,西,1.2,西,2.3,91,0,0,0,0,0,0,1006.7,1021.3
200,2023-03-20T03:19:00,0.7,西,1.2,西,2.2,91.1,0,0,0,0,0,0,1006.7,1021.3
201,2023-03-20T03:20:00,0.7,西,1.2,西,2.3,91.2,0,0,0,0,0,0,1006.7,1021.3
202,2023-03-20T03:21:00,0.8,西,1.2,西,2.4,91.3,0,0,0,0,0,0,1006.7,1021.3
203,2023-03-20T03:22:00,0.7,西,1.2,西,2.4,91.4,0,0,0,0,0,0,1006.7,1021.3
204,2023-03-20T03:23:00,0.7,西,1.2,西,2.4,91.4,0,0,0,0,0,0,1006.7,1021.3
205,2023-03-20T03:24:00,0.7,西北西,1.1,西,2.4,91.3,0,0,0,0,0,0,1006.7,1021.3
206,2023-03-20T03:25:00,0.6,西北西,1,西北西,2.3,91.1,0,0,0,0,0,0,1006.7,1021.3
207,2023-03-20T03:26:00,0.6,西北西,1,西北西,2.5,91.1,0,0,0,0,0,0,1006.8,1021.3
208,2023-03-20T03:27:00,0.6,西北西,1,西北西,2.4,91.1,0,0,0,0,0,0,1006.7,1021.3
209,2023-03-20T03:28:00,0.6,西北西,1,西北西,2.4,91,0,0,0,0,0,0,1006.7,1021.3
210,2023-03-20T03:29:00,0.5,西北西,1,西北西,2.5,91.2,0,0,0,0,0,0,1006.7,1021.2
211,2023-03-20T03:30:00,0.5,北西,1,北西,2.6,91.3,0,0,0,0,0,0,1006.8,1021.3
212,2023-03-20T03:31:00,0.5,北西,1,北西,2.3,90.9,0,0,0,0,0,0,1006.8,1021.4
213,2023-03-20T03:32:00,0.5,北西,1,北西,2.4,90.8,0,0,0,0,0,0,1006.8,1021.4
214,2023-03-20T03:33:00,0.4,北西,1,北西,2.5,90.8,0,0,0,0,0,0,1006.8,1021.3
215,2023-03-20T03:34:00,0.4,北西,1,北西,2.5,91,0,0,0,0,0,0,1006.8,1021.3
216,2023-03-20T03:35:00,0.4,北北西,1,北西,2.6,91,0,0,0,0,0,0,1006.9,1021.4
217,2023-03-20T03:36:00,0.4,北北西,1,北西,2.5,90.8,0,0,0,0,0,0,1006.9,1021.4
218,2023-03-20T03:37:00,0.4,北北西,1.2,北,2.4,90.5,0,0,0,0,0,0,1006.8,1021.4
219,2023-03-20T03:38:00,0.4,北,1.3,北北東,2.3,90.1,0,0,0,0,0,0,1006.8,1021.4
220,2023-03-20T03:39:00,0.4,北,1.3,北北東,2.3,90.2,0,0,0,0,0,0,1006.8,1021.4
221,2023-03-20T03:40:00,0.4,北,1.3,北北東,2.2,90,0,0,0,0,0,0,1006.7,1021.3
222,2023-03-20T03:41:00,0.4,北,1.3,北北東,2.1,89.9,0,0,0,0,0,0,1006.8,1021.4
223,2023-03-20T03:42:00,0.4,北,1.3,北北東,2.1,89.7,0,0,0,0,0,0,1006.8,1021.4
224,2023-03-20T03:43:00,0.4,北,1.3,北北東,2.1,89.9,0,0,0,0,0,0,1006.8,1021.4
225,2023-03-20T03:44:00,0.5,北,1.3,北北東,2.3,90.4,0,0,0,0,0,0,1006.8,1021.4
226,2023-03-20T03:45:00,0.5,北,1.3,北北東,2.2,90.6,0,0,0,0,0,0,1006.8,1021.4
227,2023-03-20T03:46:00,0.5,北,1.3,北北東,2.3,90.5,0,0,0,0,0,0,1006.8,1021.4
228,2023-03-20T03:47:00,0.5,北,1.3,北北東,2.2,90.7,0,0,0,0,0,0,1006.8,1021.4
229,2023-03-20T03:48:00,0.4,北,1.1,北,2.2,90.6,0,0,0,0,0,0,1006.8,1021.4
230,2023-03-20T03:49:00,0.5,北,1.1,北,2.3,90.8,0,0,0,0,0,0,1006.8,1021.4
231,2023-03-20T03:50:00,0.5,北,1.1,北,2.3,90.9,0,0,0,0,0,0,1006.9,1021.5
232,2023-03-20T03:51:00,0.5,北,1.1,北,2.3,90.9,0,0,0,0,0,0,1006.8,1021.4
233,2023-03-20T03:52:00,0.5,北,1.1,北,2.4,91.2,0,0,0,0,0,0,1006.9,1021.5
234,2023-03-20T03:53:00,0.5,北,1.1,北,2.2,91.1,0,0,0,0,0,0,1007,1021.6
235,2023-03-20T03:54:00,0.4,北,1.1,北,2.1,90.3,0,0,0,0,0,0,1006.9,1021.5
236,2023-03-20T03:55:00,0.4,北,1.1,北,2.1,90.3,0,0,0,0,0,0,1006.9,1021.5
237,2023-03-20T03:56:00,0.4,北北西,1,北,1.9,90,0,0,0,0,0,0,1006.9,1021.5
238,2023-03-20T03:57:00,0.4,北北西,1,北,2,90,0,0,0,0,0,0,1006.9,1021.5
239,2023-03-20T03:58:00,0.4,北北西,1,北,2.1,90.5,0,0,0,0,0,0,1006.9,1021.5
240,2023-03-20T03:59:00,0.4,北,1,北,2.1,91,0,0,0,0,0,0,1006.9,1021.5
241,2023-03-20T04:00:00,0.4,北,1.3,北,2.1,90.7,0,0,0,0,0,0,1006.9,1021.5
242,2023-03-20T04:01:00,0.4,北,1.3,北,2.1,91.1,0,0,0,0,0,0,1006.9,1021.5
243,2023-03-20T04:02:00,0.4,北,1.3,北,2.1,91,0,0,0,0,0,0,1006.8,1021.4
244,2023-03-20T04:03:00,0.4,北,1.3,北,2.1,90.8,0,0,0,0,0,0,1006.8,1021.4
245,2023-03-20T04:04:00,0.4,北北西,1.3,北,2.1,91,0,0,0,0,0,0,1006.8,1021.4
246,2023-03-20T04:05:00,0.4,北北西,1.3,北,2,90.7,0,0,0,0,0,0,1006.9,1021.5
247,2023-03-20T04:06:00,0.5,北北西,1.3,北,2,90.8,0,0,0,0,0,0,1006.9,1021.5
248,2023-03-20T04:07:00,0.5,北北西,1.3,北,2,90.8,0,0,0,0,0,0,1006.9,1021.5
249,2023-03-20T04:08:00,0.5,北西,1.3,北,1.9,90.7,0,0,0,0,0,0,1006.8,1021.4
250,2023-03-20T04:09:00,0.6,北西,1.3,北,1.9,90.8,0,0,0,0,0,0,1006.8,1021.4
251,2023-03-20T04:10:00,0.6,北西,1,西,1.9,90.8,0,0,0,0,0,0,1006.9,1021.5
252,2023-03-20T04:11:00,0.5,北西,1,西,2,91,0,0,0,0,0,0,1006.8,1021.4
253,2023-03-20T04:12:00,0.6,西北西,1,西,2.1,91.5,0,0,0,0,0,0,1006.9,1021.5
254,2023-03-20T04:13:00,0.6,西北西,1,西,2,91.3,0,0,0,0,0,0,1006.9,1021.5
255,2023-03-20T04:14:00,0.6,西北西,1,西北西,2,91.2,0,0,0,0,0,0,1006.8,1021.4
256,2023-03-20T04:15:00,0.6,西北西,1,西北西,2.1,91.3,0,0,0,0,0,0,1006.8,1021.4
257,2023-03-20T04:16:00,0.6,北西,1,西北西,1.9,91.2,0,0,0,0,0,0,1006.8,1021.4
258,2023-03-20T04:17:00,0.6,北西,1.1,北西,1.8,90.9,0,0,0,0,0,0,1006.9,1021.5
259,2023-03-20T04:18:00,0.5,北西,1.1,北西,1.8,90.8,0,0,0,0,0,0,1006.8,1021.4
260,2023-03-20T04:19:00,0.5,北西,1.1,北西,1.8,90.9,0,0,0,0,0,0,1006.8,1021.4
261,2023-03-20T04:20:00,0.5,北西,1.1,北西,1.9,91.3,0,0,0,0,0,0,1006.8,1021.4
262,2023-03-20T04:21:00,0.5,北西,1.1,北西,2,91.5,0,0,0,0,0,0,1006.8,1021.4
263,2023-03-20T04:22:00,0.4,北西,1.1,北西,2.1,91.6,0,0,0,0,0,0,1006.9,1021.5
264,2023-03-20T04:23:00,0.4,北西,1.1,北西,1.9,91.5,0,0,0,0,0,0,1006.9,1021.5
265,2023-03-20T04:24:00,0.4,北西,1.1,北西,1.8,91.3,0,0,0,0,0,0,1006.9,1021.5
266,2023-03-20T04:25:00,0.4,北西,1.1,北西,1.9,91.3,0,0,0,0,0,0,1006.8,1021.4
267,2023-03-20T04:26:00,0.4,北西,1.1,北西,2,91.6,0,0,0,0,0,0,1006.8,1021.4
268,2023-03-20T04:27:00,0.4,北西,0.9,西,2,91.5,0,0,0,0,0,0,1006.9,1021.5
269,2023-03-20T04:28:00,0.4,北西,0.9,西,2,91.7,0,0,0,0,0,0,1006.9,1021.5
270,2023-03-20T04:29:00,0.5,北西,0.9,西,2,91.7,0,0,0,0,0,0,1006.9,1021.5
271,2023-03-20T04:30:00,0.5,北西,0.9,西,2,91.8,0,0,0,0,0,0,1006.9,1021.5
272,2023-03-20T04:31:00,0.5,北西,0.9,西,2.2,91.9,0,0,0,0,0,0,1006.9,1021.5
273,2023-03-20T04:32:00,0.5,北西,0.9,西,2,91.8,0,0,0,0,0,0,1006.9,1021.5
274,2023-03-20T04:33:00,0.5,北西,0.8,北西,1.9,91.4,0,0,0,0,0,0,1006.9,1021.5
275,2023-03-20T04:34:00,0.6,北西,0.9,西北西,2,91.6,0,0,0,0,0,0,1006.9,1021.5
276,2023-03-20T04:35:00,0.6,北西,0.9,西北西,1.9,91.3,0,0,0,0,0,0,1006.9,1021.5
277,2023-03-20T04:36:00,0.6,西北西,1,西,2,91.3,0,0,0,0,0,0,1006.9,1021.5
278,2023-03-20T04:37:00,0.6,西北西,1,西,1.9,91.4,0,0,0,0,0,0,1006.9,1021.5
279,2023-03-20T04:38:00,0.7,西北西,1,西,1.8,91.3,0,0,0,0,0,0,1006.9,1021.5
280,2023-03-20T04:39:00,0.7,西北西,1,西,1.9,91.1,0,0,0,0,0,0,1006.9,1021.5
281,2023-03-20T04:40:00,0.7,西北西,1,西,1.8,91.1,0,0,0,0,0,0,1006.9,1021.5
282,2023-03-20T04:41:00,0.7,西北西,1,西,1.8,91,0,0,0,0,0,0,1006.9,1021.5
283,2023-03-20T04:42:00,0.7,西,1,西,1.8,91.1,0,0,0,0,0,0,1006.9,1021.5
284,2023-03-20T04:43:00,0.7,西,1.2,西南西,1.8,91.1,0,0,0,0,0,0,1006.9,1021.5
285,2023-03-20T04:44:00,0.7,西,1.2,西南西,1.7,90.9,0,0,0,0,0,0,1006.9,1021.5
286,2023-03-20T04:45:00,0.7,西北西,1.2,西南西,1.8,90.8,0,0,0,0,0,0,1006.9,1021.5
287,2023-03-20T04:46:00,0.6,西北西,1.2,西南西,2,91.3,0,0,0,0,0,0,1007,1021.6
288,2023-03-20T04:47:00,0.6,西北西,1.2,西南西,1.9,91.5,0,0,0,0,0,0,1007,1021.6
289,2023-03-20T04:48:00,0.6,西北西,1.2,西南西,1.7,91.1,0,0,0,0,0,0,1007,1021.6
290,2023-03-20T04:49:00,0.6,西北西,1.2,西南西,1.6,90.6,0,0,0,0,0,0,1006.9,1021.5
291,2023-03-20T04:50:00,0.5,西北西,1.2,西南西,1.7,90.8,0,0,0,0,0,0,1007,1021.6
292,2023-03-20T04:51:00,0.5,西北西,1.2,西南西,1.7,91.1,0,0,0,0,0,0,1007.1,1021.7
293,2023-03-20T04:52:00,0.5,西北西,1.2,西南西,1.9,91.3,0,0,0,0,0,0,1007.1,1021.7
294,2023-03-20T04:53:00,0.4,西北西,0.8,西北西,1.6,91.1,0,0,0,0,0,0,1007.1,1021.7
295,2023-03-20T04:54:00,0.4,西北西,0.8,西北西,1.7,91.1,0,0,0,0,0,0,1007,1021.6
296,2023-03-20T04:55:00,0.4,西北西,0.8,西北西,1.8,91.2,0,0,0,0,0,0,1007,1021.6
297,2023-03-20T04:56:00,0.3,北西,0.8,西北西,1.8,91.5,0,0,0,0,0,0,1007,1021.6
298,2023-03-20T04:57:00,0.3,北西,0.7,西北西,1.7,91.2,0,0,0,0,0,0,1007.1,1021.7
299,2023-03-20T04:58:00,0.3,北西,0.7,西北西,1.9,91.4,0,0,0,0,0,0,1007.1,1021.7
300,2023-03-20T04:59:00,0.2,静穏,0.7,西北西,2,91.5,0,0,0,0,0,0,1007.1,1021.7
301,2023-03-20T05:00:00,0.2,静穏,0.8,北東,1.9,91.6,0,0,0,0,0,0,1007,1021.6
302,2023-03-20T05:01:00,0.2,静穏,0.8,北東,1.8,91.3,0,0,0,0,0,0,1007,1021.6
303,2023-03-20T05:02:00,0.2,静穏,0.8,北東,1.9,91.2,0,0,0,0,0,0,1007.1,1021.7
304,2023-03-20T05:03:00,0.2,静穏,0.9,北,1.9,91.4,0,0,0,0,0,0,1007.1,1021.7
305,2023-03-20T05:04:00,0.2,静穏,0.9,北,1.8,91.3,0,0,0,0,0,0,1007.2,1021.8
306,2023-03-20T05:05:00,0.2,静穏,0.9,北,1.8,90.9,0,0,0,0,0,0,1007.1,1021.7
307,2023-03-20T05:06:00,0.2,静穏,0.9,北,1.7,90.8,0,0,0,0,0,0,1007.1,1021.7
308,2023-03-20T05:07:00,,"",,"",,,,,,,,,,
309,2023-03-20T05:08:00,0.2,静穏,0.9,北,1.7,90.8,0,0,0,0,0,0,1007.2,1021.8
310,2023-03-20T05:09:00,0.2,静穏,0.9,北,1.6,90.6,0,0,0,0,0,0,1007.2,1021.8
311,2023-03-20T05:10:00,0.2,静穏,0.9,北,1.5,90.4,0,0,0,0,0,0,1007.1,1021.7
312,2023-03-20T05:11:00,0.2,静穏,0.9,北,1.6,90.7,0,0,0,0,0,0,1007.1,1021.7
313,2023-03-20T05:12:00,0.2,静穏,0.9,北,1.5,90.9,0,0,0,0,0,0,1007.1,1021.7
314,2023-03-20T05:13:00,0.1,静穏,0.7,北,1.6,90.8,0,0,0,0,0,0,1007.1,1021.7
315,2023-03-20T05:14:00,0.1,静穏,0.5,北北東,1.5,91,0,0,0,0,0,0,1007.2,1021.8
316,2023-03-20T05:15:00,0.1,静穏,0.5,北北東,1.7,91.1,0,0,0,0,0,0,1007.2,1021.8
317,2023-03-20T05:16:00,0.1,静穏,0.5,北北東,1.7,91.5,0,0,0,0,0,0,1007.2,1021.8
318,2023-03-20T05:17:00,0.1,静穏,0.4,北東,1.7,91.4,0,0,0,0,0,0,1007.2,1021.8
319,2023-03-20T05:18:00,0.1,静穏,0.4,北東,1.8,91.7,0,0,0,0,0,0,1007.2,1021.8
320,2023-03-20T05:19:00,0.1,静穏,0.4,北東,1.7,91.5,0,0,0,0,0,0,1007.2,1021.8
321,2023-03-20T05:20:00,0.1,静穏,0.4,北東,1.6,91.3,0,0,0,0,0,0,1007.3,1021.9
322,2023-03-20T05:21:00,0.1,静穏,0.7,西南西,1.7,91.4,0,0,0,0,0,0,1007.3,1021.9
323,2023-03-20T05:22:00,0.2,静穏,0.7,西南西,1.6,91.2,0,0,0,0,0,0,1007.3,1021.9
324,2023-03-20T05:23:00,0.2,静穏,0.7,西南西,1.6,91.2,0,0,0,0,0,0,1007.3,1021.9
325,2023-03-20T05:24:00,0.2,静穏,0.7,西南西,1.6,91.3,0,0,0,0,0,0,1007.3,1021.9
326,2023-03-20T05:25:00,0.2,静穏,0.8,西北西,1.6,91.3,0,0,0,0,0,0,1007.3,1021.9
327,2023-03-20T05:26:00,0.3,北西,0.8,西北西,1.4,90.9,0,0,0,0,0,0,1007.4,1022
328,2023-03-20T05:27:00,0.3,西北西,0.8,西北西,1.4,91,0,0,0,0,0,0,1007.4,1022
329,2023-03-20T05:28:00,0.3,西北西,0.8,西北西,1.4,90.8,0,0,0,0,0,0,1007.3,1021.9
330,2023-03-20T05:29:00,0.3,西北西,0.8,西北西,1.4,91,0,0,0,0,0,0,1007.3,1021.9